Terug naar catalogus

SL-14 DEB

ActiefPO
NORAD 47082·DEBRIS·🇷🇺 Russia

Gelanceerd Aug 15, 1991 vanaf Plesetsk Cosmodrome

Loading…

Volgende Passages (komende 24 uur)

TLE

VersSource: Space-Track

Epoch: Sep 14, 2026, 07:31 UTC

1 47082U 91056DG  26257.31352269  .00000434  00000-0  11761-2 0  9994
2 47082  82.6148 109.4148 0040688  56.0617 304.4360 13.11963414280362

Volg SL-14 DEB in realtime met AllMySat

Download on the App Store